Jacksonville NAS, FL

6:39 PM EDT on April 29, 2017 (GMT -0400)
Jacksonville Naval Air Station

Weather History for KNIP - May, 2014

Change the Weather History Date:

Tuesday, May 6, 2014

  Actual Average Record
Temperature  
Mean Temperature 78 °F -  
Max Temperature 91 °F 82 °F 96 °F (2012)
Min Temperature 66 °F 64 °F 55 °F (2013)
Cooling Degree Days 14    
Growing Degree Days 28 (Base 50)    
Moisture  
Dew Point 56 °F    
Average Humidity 44    
Maximum Humidity 70    
Minimum Humidity 24    
Precipitation  
Precipitation 0.00 in - - ()
Sea Level Pressure  
Sea Level Pressure 30.00 in    
Wind  
Wind Speed 6 mph (South)    
Max Wind Speed 12 mph    
Max Gust Speed -    
Visibility 10 miles    
Events      
Averages and records for this station are not official NWS values.
T = Trace of Precipitation, MM = Missing Value Source: NWS Daily Summary

Daily Weather History Graph

Daily Weather History Graph

Search for Another Location

Airport or City:

Trip Planner

Search our weather history database for the weather conditions in past years. The results will help you decide how hot, cold, wet, or windy it might be!

Date:

Astronomy

May. 06, 2014 Rise Set
Actual Time 6:39 AM EDT 8:07 PM EDT
Civil Twilight 6:13 AM EDT 8:33 PM EDT
Nautical Twilight 5:42 AM EDT 9:04 PM EDT
Astronomical Twilight 5:10 AM EDT 9:36 PM EDT
Moon 12:49 PM EDT (5/6) 1:30 AM EDT (5/6)
Length of Visible Light 14h 19m
Length of Day
13h 28m
Waxing Crescent, 46% of the Moon is Illuminated
May 6
Waxing Crescent
May 6
First Quarter
May 14
Full
May 21
Last Quarter
May 28
New

Hourly Weather History & Observations

Time (EDT) Temp. Heat Index Dew Point Humidity Pressure Visibility Wind Dir Wind Speed Gust Speed Precip Events Conditions
12:53 AM 75.9 °F - 57.9 °F 54% 30.00 in 10.0 mi South 5.8 mph - N/A   Clear
1:53 AM 73.9 °F - 57.9 °F 57% 29.99 in 10.0 mi SSW 4.6 mph - N/A   Clear
2:53 AM 72.0 °F - 57.0 °F 59% 29.98 in 10.0 mi South 4.6 mph - N/A   Clear
3:53 AM 71.1 °F - 57.0 °F 61% 29.98 in 10.0 mi SW 3.5 mph - N/A   Clear
7:53 AM 66.9 °F - 57.0 °F 70% 30.03 in 10.0 mi Calm Calm - N/A   Clear
8:53 AM 72.0 °F - 57.0 °F 59% 30.04 in 10.0 mi NW 3.5 mph - N/A   Clear
9:53 AM 78.1 °F - 55.0 °F 45% 30.06 in 10.0 mi WNW 5.8 mph - N/A   Clear
10:53 AM 82.0 °F 81.4 °F 55.0 °F 39% 30.05 in 10.0 mi Variable 3.5 mph - N/A   Clear
11:53 AM 82.9 °F 82.4 °F 57.0 °F 41% 30.05 in 10.0 mi Variable 4.6 mph - N/A   Clear
12:53 PM 86.0 °F 84.5 °F 55.0 °F 35% 30.03 in 10.0 mi East 5.8 mph - N/A   Clear
1:53 PM 87.1 °F 85.3 °F 55.0 °F 33% 30.02 in 10.0 mi East 10.4 mph - N/A   Clear
2:53 PM 90.0 °F - 52.0 °F 27% 30.00 in 10.0 mi SE 10.4 mph - N/A   Clear
3:53 PM 91.0 °F - 50.0 °F 24% 29.98 in 10.0 mi South 5.8 mph - N/A   Clear
4:53 PM 91.0 °F - 51.1 °F 25% 29.96 in 10.0 mi South 8.1 mph - N/A   Clear
5:53 PM 91.0 °F - 50.0 °F 24% 29.96 in 10.0 mi South 9.2 mph - N/A   Clear
6:53 PM 90.0 °F 87.5 °F 53.1 °F 28% 29.96 in 10.0 mi SSE 6.9 mph - N/A   Clear
7:53 PM 86.0 °F 85.7 °F 60.1 °F 41% 29.97 in 10.0 mi SE 10.4 mph - N/A   Clear
8:53 PM 82.9 °F 83.3 °F 61.0 °F 47% 29.99 in 10.0 mi SSE 9.2 mph - N/A   Clear
9:53 PM 80.1 °F 80.7 °F 59.0 °F 48% 30.01 in 10.0 mi SSE 11.5 mph - N/A   Clear
10:53 PM 79.0 °F - 60.1 °F 52% 30.02 in 10.0 mi SSE 10.4 mph - N/A   Clear
11:53 PM 78.1 °F - 60.1 °F 54% 30.02 in 10.0 mi South 11.5 mph - N/A   Clear